Other Surface Observations
Issued by NWS

Home | Current Version | Previous Version | Text Only | Print | Product List | Glossary On
Versions: 1 2 3 4 5 6 7 8 9 10 11 12 13 14 15 16 17 18 19 20 21 22 23 24 25 26 27 28 29 30 31 32 33 34 35 36 37 38 39 40 41 42 43 44 45 46 47 48 49 50
000
SXUS52 KTAE 230318
OSOTAE
OSOTAE
North Florida/South Alabama/Southwest Georgia Weather Roundup
National Weather Service Tallahassee Florida
1100 PM EDT FRI AUG 22 2014

Note: "fair" indicates few or no clouds below 12,000 feet with no
significant weather and/or obstructions to visibility.

!FLZ017-115-028-034-025-230400
...North Florida...

CITY           SKY/WX    TMP DP  RH WIND       PRES   REMARKS
TALLAHASSEE    CLEAR     80  73  79 CALM      30.01S
APALACHICOLA   CLEAR     78  74  87 CALM      30.01S
PERRY          PTCLDY    81  77  89 CALM      30.01R
CROSS CITY       N/A     80  76  87 CALM      30.00S
HOMERVILLE     FAIR      82  77  83 CALM      30.00S HX  91
JACKSONVILLE   PTCLDY    81  73  76 SW5       29.99R
$$

!FLZ112-006-005-002-011-230400
...Florida Panhandle...

CITY           SKY/WX    TMP DP  RH WIND       PRES   REMARKS
MARIANNA       CLEAR     82  78  88 CALM      30.00S HX  91
BONIFAY        FAIR      79  77  94 CALM      30.02R
PANAMA CITY NW FAIR      82  78  88 CALM      30.01R HX  91
TYNDALL AFB    CLEAR     79  79 100 W3        30.02S
TYND DRONE APT NOT AVBL
DE FUNIAK SPR  FAIR      82  76  84 CALM      30.03R
EGLIN AFB      MOCLDY    84  77  77 W5        30.01R HX  94
DESTIN         PTCLDY    87  79  76 MISG      30.01R HX 101
HURLBURT       CLEAR     86  73  66 W7        30.00S HX  93
CRESTVIEW      PTCLDY    81  76  84 S3        30.03R
PENSACOLA      CLEAR     84  74  71 W6        30.01R HX  91
$$

!ALZ063-066-230400
...South Alabama...

CITY           SKY/WX    TMP DP  RH WIND       PRES   REMARKS
DOTHAN         CLEAR     80  74  81 S3        30.06R
OZARK CAIRNS   PTCLDY    81  76  84 S5        30.02R
FT RUCKER HELI CLEAR     80  75  84 CALM      30.01R
RUCKER HELI 3  FAIR      81  74  79 NW3       30.05R
RUCKER HELI 2  FAIR      81  75  82 NW3       30.02R
FLORALA APT    PTCLDY    82  76  81 CALM      30.04R
ANDALUSIA      PTCLDY    83  76  79 CALM      30.02R HX  91
TROY           CLEAR     79  76  90 CALM      30.03R
EUFALA         FAIR      78  74  87 CALM      30.01R
MOBILE         PTCLDY    81  76  84 W5        30.04R
$$

!GAZ120>161-230400
...Southwest and South Central Georgia...

CITY           SKY/WX    TMP DP  RH WIND       PRES   REMARKS
THOMASVILLE    FAIR      82  73  74 SW5       30.01S
BAINBRIDGE     CLEAR     81  77  89 CALM      30.01R
MOODY AFB      CLEAR     81  75  83 S1        29.99F
VALDOSTA       CLEAR     80  72  76 CALM      30.00R
MOULTRIE       CLEAR     82  75  78 SW3       30.01R
BLAKELY        CLEAR     81  77  89 CALM        N/A
ALBANY         CLEAR     82  74  76 CALM      30.02R
TIFTON         FAIR      80  72  75 CALM      30.01R
FITZGERALD     FAIR      80  76  89 CALM      30.02S
CORDELE        FAIR      80  77  92 CALM      30.01R
AMERICUS       FAIR      81  72  74 CALM      30.03R
$$

!GMZ750-755-770-775-230400
...Coastal and Buoy Obs...

STATION/POSITION TIME  TEMP    WIND        PRES    VSBY  WAVE
                       AIR SEA DIR/SP/G                  HT/PER
                 (UTC) (F)     (DEG/KT/KT) (MB)    (MI)  (FT/S)
KEATON BEACH     0300   86     290/  7/  9 1016.1S
CEDAR KEY        0300   85     180/  1/  2 1016.6R
C TOWER          0300   83     300/  3/  4 1016.3S
APALACHICOLA BUO 0300   86 87  320/  6/  6 1016.5R         1
PANAMA CITY BUOY 0230   86 88   CALM  /  2 1016.6S         1/ 8
MOBILE BUOY      0200          VRB  2        N/A
ORANGE BCH AL BU 0300   87 87  250/ 10/ 10 1016.5R         1
$$



USA.gov is the U.S. government's official web portal to all federal, state and local government web resources and services.